1491649200.86,25315,11.75,73356.5,-3.13,-3.43,-3.27,0,*53
1491649202.1,25316,11.75,73358.5,-3.17,-3.43,-3.31,0,*53
1491649203.37,25317,11.75,73362.0,-3.17,-3.47,-3.43,0,*53
1491649204.64,25318,11.75,73368.0,-3.17,-3.47,-3.43,0,*5C
1491649205.89,25319,11.75,73360.0,-3.17,-3.43,-3.35,0,*58
1491649207.14,25320,11.75,73344.5,-3.17,-3.47,-3.35,0,*56
1491649208.38,25321,11.75,73350.0,-3.17,-3.43,-3.35,0,*53
1491649209.63,25322,11.75,73356.8,-3.17,-3.43,-3.27,0,*53
1491649210.85,25323,11.75,73350.0,-3.13,-3.31,-3.31,0,*54
1491649212.07,25324,11.75,73352.0,-3.17,-3.31,-3.31,0,*57
1491649213.3,25325,11.75,73362.5,-3.13,-3.31,-3.27,0,*55
1491649214.5,25326,11.75,73354.3,-3.19,-3.35,-3.31,0,*5F
1491649215.72,25327,11.75,73352.0,-3.17,-3.31,-3.31,0,*54
1491649216.94,25328,11.75,73354.0,-3.17,-3.31,-3.31,0,*5B
1491649218.14,25329,11.75,73358.0,-3.19,-3.31,-3.31,0,*54
1491649219.33,25330,11.75,73342.0,-3.19,-3.31,-3.23,0,*5F
1491649220.53,25331,11.75,73334.5,-3.19,-3.35,-3.23,0,*5A
1491649221.75,25332,11.75,73348.0,-3.17,-3.31,-3.19,0,*5A
1491649222.96,25333,11.75,73338.5,-3.17,-3.23,-3.19,0,*58
1491649224.18,25334,11.75,73342.3,-3.17,-3.19,-3.19,0,*56
1491649225.4,25335,11.75,73344.3,-3.17,-3.15,-3.15,0,*57
1491649226.62,25336,11.75,73352.5,-3.17,-3.15,-3.15,0,*54
1491649227.84,25337,11.75,73356.8,-3.17,-3.15,-3.07,0,*56
1491649229.06,25338,11.75,73350.8,-3.13,-2.99,-2.91,0,*56
1491649230.28,25339,11.75,73352.0,-3.13,-2.99,-2.87,0,*50
1491649231.5,25340,11.75,73356.3,-3.13,-2.99,-2.87,0,*5E
1491649232.72,25341,11.75,73358.3,-3.13,-2.91,-2.87,0,*57
1491649233.93,25342,11.75,73354.5,-3.13,-2.91,-2.87,0,*54
1491649235.15,25343,11.75,73346.3,-3.13,-2.99,-2.91,0,*5A
1491649236.38,25344,11.75,73352.8,-3.09,-2.99,-2.95,0,*52
1491649237.57,25345,11.75,73352.3,-3.11,-3.03,-3.03,0,*56
1491649238.77,25346,11.75,73334.3,-3.11,-3.11,-3.03,0,*56
1491649240.0,25347,11.75,73324.0,-3.09,-3.15,-3.07,0,*5E
1491649241.19,25348,11.75,73330.5,-3.11,-3.19,-3.19,0,*5B
1491649242.39,25349,11.75,73346.3,-3.11,-3.27,-3.27,0,*5A
1491649243.6,25350,11.75,73342.0,-3.11,-3.31,-3.27,0,*55
1491649244.83,25351,11.75,73346.0,-3.09,-3.35,-3.27,0,*59
1491649246.03,25352,11.75,73340.3,-3.11,-3.39,-3.39,0,*50
1491649247.25,25353,11.75,73336.3,-3.11,-3.43,-3.39,0,*5C
1491649248.47,25354,11.75,73342.0,-3.11,-3.39,-3.43,0,*5B
1491649249.71,25355,11.75,73342.8,-3.11,-3.43,-3.43,0,*57
1491649250.95,25356,11.75,73340.0,-3.11,-3.43,-3.43,0,*54
1491649252.2,25357,11.75,73352.3,-3.11,-3.43,-3.43,0,*55
1491649253.44,25358,11.75,73358.0,-3.11,-3.55,-3.51,0,*5E
1491649254.68,25359,11.75,73362.5,-3.11,-3.55,-3.51,0,*5F
1491649255.94,25360,11.75,73352.5,-3.13,-3.55,-3.55,0,*53
1491649257.21,25361,11.75,73356.0,-3.13,-3.55,-3.51,0,*56
1491649258.45,25362,11.75,73356.3,-3.11,-3.67,-3.55,0,*52
1491649259.71,25363,11.69,73352.8,-3.13,-3.67,-3.67,0,*50
1491649260.97,25364,11.69,73352.8,-3.13,-3.67,-3.67,0,*57
1491649262.24,25365,11.75,73360.5,-3.17,-3.71,-3.71,0,*52
1491649263.5,25366,11.75,73360.5,-3.17,-3.71,-3.67,0,*56
1491649264.77,25367,11.75,73366.0,-3.13,-3.63,-3.67,0,*50
1491649266.01,25368,11.75,73366.0,-3.17,-3.79,-3.71,0,*57
1491649267.26,25369,11.75,73358.0,-3.17,-3.79,-3.67,0,*51
1491649268.51,25370,11.69,73346.3,-3.13,-3.79,-3.67,0,*5D
1491649269.74,25371,11.75,73336.8,-3.17,-3.83,-3.79,0,*52
1491649270.97,25372,11.69,73328.8,-3.17,-3.79,-3.79,0,*54
1491649272.22,25373,11.75,73346.5,-3.17,-3.79,-3.67,0,*5A
1491649273.49,25374,11.75,73348.8,-3.17,-3.67,-3.59,0,*5F
1491649274.73,25375,11.69,73342.5,-3.19,-3.67,-3.55,0,*5C
1491649276.0,25376,11.75,73346.5,-3.17,-3.59,-3.59,0,*50
1491649277.27,25377,11.75,73336.8,-3.17,-3.59,-3.55,0,*5D
1491649278.54,25378,11.75,73324.5,-3.17,-3.59,-3.55,0,*52
1491649279.81,25379,11.69,73322.0,-3.17,-3.67,-3.59,0,*52
1491649281.07,25380,11.69,73334.5,-3.17,-3.67,-3.67,0,*59
1491649282.32,25381,11.75,73338.5,-3.19,-3.67,-3.59,0,*5B
1491649283.56,25382,11.69,73336.3,-3.19,-3.67,-3.71,0,*52
1491649284.78,25383,11.75,73348.5,-3.19,-3.79,-3.71,0,*5C
1491649286.02,25384,11.75,73352.5,-3.19,-3.71,-3.71,0,*53
1491649287.24,25385,11.69,73352.8,-3.19,-3.83,-3.71,0,*5F
1491649288.47,25386,11.69,73358.3,-3.19,-3.79,-3.67,0,*5E
1491649289.67,25387,11.75,73346.5,-3.19,-3.79,-3.79,0,*50
1491649290.9,25388,11.69,73356.5,-3.19,-3.83,-3.71,0,*52
1491649292.13,25389,11.75,73354.8,-3.21,-3.83,-3.75,0,*5C
1491649293.36,25390,11.75,73360.8,-3.21,-3.83,-3.75,0,*54
1491649294.59,25391,11.69,73360.3,-3.19,-3.79,-3.71,0,*5F
1491649295.82,25392,11.69,73362.3,-3.21,-3.75,-3.75,0,*5F
1491649297.07,25393,11.75,73366.0,-3.21,-3.75,-3.71,0,*5A
1491649298.31,25394,11.75,73376.8,-3.19,-3.71,-3.67,0,*55
1491649299.55,25395,11.75,73352.0,-3.21,-3.75,-3.75,0,*58
1491649300.79,25396,11.75,73356.3,-3.19,-3.71,-3.71,0,*50
1491649302.02,25397,11.75,73352.3,-3.19,-3.71,-3.55,0,*57
1491649303.27,25398,11.75,73344.5,-3.21,-3.75,-3.63,0,*52
1491649304.54,25399,11.75,73360.0,-3.21,-3.71,-3.71,0,*54
1491649305.79,25400,11.75,73352.5,-3.21,-3.75,-3.71,0,*57
1491649307.04,25401,11.75,73340.5,-3.21,-3.75,-3.71,0,*56
1491649308.31,25402,11.69,73326.5,-3.21,-3.71,-3.63,0,*52
1491649309.54,25403,11.75,73352.5,-3.21,-3.75,-3.75,0,*50
1491649310.79,25404,11.75,73334.8,-3.21,-3.75,-3.71,0,*53
1491649312.03,25405,11.75,73342.0,-3.21,-3.75,-3.75,0,*56
1491649313.25,25406,11.75,73342.0,-3.25,-3.87,-3.79,0,*50
1491649314.46,25407,11.75,73342.3,-3.23,-3.83,-3.75,0,*5F
1491649315.66,25408,11.75,73316.3,-3.23,-3.83,-3.75,0,*50
1491649316.89,25409,11.75,73328.8,-3.21,-3.83,-3.87,0,*5E
1491649318.12,25410,11.75,73336.8,-3.21,-3.83,-3.83,0,*52
1491649319.35,25411,11.75,73324.8,-3.21,-3.75,-3.83,0,*5A
1491649320.55,25412,11.75,73308.0,-3.23,-3.83,-3.83,0,*52
1491649321.75,25413,11.69,73276.5,-3.23,-3.75,-3.75,0,*53
1491649322.99,25414,11.69,73314.3,-3.25,-3.91,-3.79,0,*54
1491649324.19,25415,11.69,73318.3,-3.23,-3.83,-3.75,0,*5C
1491649325.39,25416,11.75,73322.8,-3.23,-3.87,-3.83,0,*52
1491649326.61,25417,11.69,73312.5,-3.21,-3.95,-3.87,0,*56
1491649327.87,25418,11.75,73302.5,-3.25,-4.01,-3.91,0,*50
1491649329.12,25419,11.75,73306.3,-3.25,-4.01,-3.91,0,*51
1491649330.32,25420,11.69,73314.5,-3.23,-3.95,-3.87,0,*50
1491649331.58,25421,11.69,73306.5,-3.25,-4.01,-3.91,0,*5A
1491649332.8,25422,11.75,73308.3,-3.25,-3.91,-3.87,0,*50
1491649334.03,25423,11.69,73294.8,-3.25,-3.87,-3.87,0,*56
1491649335.26,25424,11.69,73296.0,-3.25,-3.91,-3.91,0,*51
1491649336.49,25425,11.75,73312.0,-3.25,-3.91,-3.87,0,*57
1491649337.72,25426,11.69,73324.5,-3.25,-3.91,-3.91,0,*53
1491649338.97,25427,11.69,73324.0,-3.25,-4.01,-3.91,0,*5C
1491649340.21,25428,11.69,73328.0,-3.25,-3.91,-3.91,0,*5D
1491649341.45,25429,11.69,73340.5,-3.25,-4.05,-4.01,0,*58
1491649342.65,25430,11.75,73336.0,-3.27,-4.09,-4.05,0,*5A
1491649343.87,25431,11.69,73334.8,-3.25,-4.05,-4.09,0,*59
1491649345.07,25432,11.69,73340.5,-3.27,-4.09,-4.13,0,*5F
1491649346.26,25433,11.75,73346.3,-3.27,-4.13,-4.13,0,*55
1491649347.48,25434,11.69,73354.5,-3.25,-4.17,-4.17,0,*50
1491649348.68,25435,11.75,73364.8,-3.27,-4.13,-4.13,0,*53
1491649349.91,25436,11.75,73366.8,-3.29,-4.25,-4.21,0,*5A
1491649351.14,25437,11.75,73362.0,-3.29,-4.25,-4.25,0,*5F
1491649352.36,25438,11.75,73342.8,-3.29,-4.33,-4.25,0,*57
1491649353.59,25439,11.75,73338.8,-3.29,-4.25,-4.33,0,*56
1491649354.81,25440,11.75,73354.3,-3.33,-4.37,-4.37,0,*54
1491649356.03,25441,11.69,73366.3,-3.33,-4.37,-4.37,0,*55
1491649357.26,25442,11.75,73372.8,-3.33,-4.37,-4.37,0,*56
1491649358.46,25443,11.69,73374.0,-3.35,-4.29,-4.29,0,*51
1491649359.69,25444,11.75,73384.0,-3.33,-4.37,-4.37,0,*50
1491649360.92,25445,11.69,73374.8,-3.33,-4.29,-4.29,0,*51
1491649362.12,25446,11.69,73352.0,-3.35,-4.29,-4.29,0,*54
1491649363.32,25447,11.69,73352.3,-3.35,-4.37,-4.29,0,*5A
1491649364.52,25448,11.75,73384.0,-3.35,-4.37,-4.29,0,*55
1491649365.72,25449,11.75,73382.0,-3.35,-4.29,-4.37,0,*54
1491649366.95,25450,11.69,73376.8,-3.37,-4.33,-4.29,0,*5A
1491649368.18,25451,11.75,73402.0,-3.37,-4.33,-4.33,0,*50
1491649369.37,25452,11.75,73406.3,-3.39,-4.41,-4.33,0,*58
1491649370.6,25453,11.69,73400.8,-3.37,-4.33,-4.41,0,*57
1491649371.8,25454,11.69,73372.3,-3.39,-4.33,-4.33,0,*5B
1491649372.99,25455,11.75,73362.8,-3.39,-4.45,-4.41,0,*5E
1491649374.18,25456,11.75,73366.8,-3.39,-4.41,-4.41,0,*59
1491649375.37,25457,11.75,73384.5,-3.39,-4.41,-4.41,0,*58
1491649376.56,25458,11.75,73376.3,-3.39,-4.45,-4.41,0,*53
1491649377.76,25459,11.69,73368.8,-3.39,-4.41,-4.41,0,*56
1491649378.95,25460,11.69,73370.0,-3.39,-4.41,-4.33,0,*59
1491649380.15,25461,11.69,73362.3,-3.45,-4.57,-4.37,0,*50
1491649381.37,25462,11.75,73354.3,-3.43,-4.57,-4.49,0,*5C
1491649382.59,25463,11.75,73356.0,-3.43,-4.57,-4.49,0,*5D
1491649383.78,25464,11.69,73354.8,-3.45,-4.53,-4.53,0,*53
1491649384.98,25465,11.69,73346.0,-3.45,-4.61,-4.53,0,*53
1491649386.17,25466,11.69,73338.8,-3.45,-4.53,-4.53,0,*51
1491649387.36,25467,11.75,73338.0,-3.45,-4.53,-4.49,0,*5B
1491649388.55,25468,11.75,73326.3,-3.45,-4.49,-4.49,0,*5F
1491649389.74,25469,11.75,73324.5,-3.45,-4.49,-4.49,0,*5E
1491649390.96,25470,11.69,73324.3,-3.47,-4.41,-4.49,0,*5C
1491649392.17,25471,11.69,73326.8,-3.47,-4.41,-4.45,0,*51
1491649393.38,25472,11.69,73340.8,-3.47,-4.49,-4.37,0,*5F
1491649394.6,25473,11.75,73312.5,-3.47,-4.41,-4.37,0,*56
1491649395.82,25474,11.75,73302.3,-3.47,-4.41,-4.49,0,*58
1491649397.0,25475,11.69,73308.0,-3.49,-4.53,-4.45,0,*58
1491649398.22,25476,11.75,73304.5,-3.47,-4.49,-4.41,0,*5A
1491649399.41,25477,11.69,73320.3,-3.49,-4.45,-4.41,0,*59
1491649400.6,25478,11.75,73336.0,-3.49,-4.45,-4.41,0,*56
1491649401.81,25479,11.75,73338.5,-3.47,-4.41,-4.41,0,*5D
1491649403.03,25480,11.75,73328.3,-3.51,-4.45,-4.41,0,*58
1491649404.25,25481,11.69,73330.5,-3.51,-4.45,-4.41,0,*59
1491649405.46,25482,11.75,73354.8,-3.51,-4.45,-4.45,0,*5E
1491649406.68,25483,11.69,73332.3,-3.51,-4.53,-4.53,0,*5F
1491649407.9,25484,11.69,73322.8,-3.51,-4.53,-4.53,0,*58
1491649409.12,25485,11.75,73346.5,-3.51,-4.53,-4.45,0,*5E
1491649410.34,25486,11.69,73346.8,-3.51,-4.53,-4.53,0,*5A
1491649411.54,25487,11.75,73338.5,-3.53,-4.57,-4.49,0,*56
1491649412.77,25488,11.75,73346.3,-3.51,-4.53,-4.53,0,*54
1491649413.97,25489,11.75,73348.5,-3.53,-4.57,-4.57,0,*57
1491649415.16,25490,11.69,73314.8,-3.53,-4.53,-4.45,0,*58
1491649416.37,25491,11.75,73304.0,-3.53,-4.57,-4.57,0,*5E
1491649417.57,25492,11.75,73320.5,-3.53,-4.57,-4.57,0,*5D
1491649418.77,25493,11.75,73354.5,-3.53,-4.49,-4.57,0,*53
1491649419.98,25494,11.75,73346.3,-3.53,-4.57,-4.57,0,*5B
1491649421.21,25495,11.75,73348.0,-3.55,-4.57,-4.57,0,*5C
1491649422.43,25496,11.75,73370.3,-3.55,-4.57,-4.57,0,*5F
1491649423.65,25497,11.75,73354.0,-3.55,-4.61,-4.61,0,*5E
1491649424.86,25498,11.75,73358.5,-3.57,-4.65,-4.61,0,*57
1491649426.08,25499,11.75,73354.8,-3.55,-4.57,-4.57,0,*50
1491649427.29,25500,11.69,73344.3,-3.57,-4.61,-4.61,0,*53
1491649428.49,25501,11.75,73332.5,-3.57,-4.65,-4.61,0,*56
1491649429.69,25502,11.75,73340.3,-3.57,-4.65,-4.65,0,*51
1491649430.89,25503,11.75,73364.5,-3.57,-4.61,-4.61,0,*50
1491649432.09,25504,11.69,73354.5,-3.57,-4.53,-4.53,0,*57
1491649433.3,25505,11.75,73348.5,-3.57,-4.33,-4.29,0,*5D
1491649434.54,25506,11.75,73354.3,-3.57,-3.71,-3.71,0,*55
1491649435.76,25507,11.75,73362.3,-3.55,-3.31,-3.27,0,*51
1491649437.03,25508,11.75,73362.0,-3.55,-3.51,-3.51,0,*59
1491649438.3,25509,11.69,73368.5,-3.55,-3.55,-3.51,0,*5C
1491649439.52,25510,11.69,73364.5,-3.55,-3.31,-3.27,0,*57
1491649440.74,25511,11.69,73352.3,-3.51,-3.23,-3.15,0,*50
1491649441.96,25512,11.75,73370.0,-3.51,-2.99,-2.99,0,*56
1491649443.19,25513,11.69,73352.3,-3.49,-2.79,-2.75,0,*52
1491649444.44,25514,11.75,73352.3,-3.49,-2.75,-2.71,0,*5D
1491649445.71,25515,11.75,73356.3,-3.47,-2.75,-2.67,0,*55
1491649446.96,25516,11.69,73344.5,-3.45,-2.75,-2.71,0,*53
1491649448.14,25517,11.69,73340.8,-3.45,-2.83,-2.83,0,*56
1491649449.36,25518,11.69,73350.3,-3.43,-2.91,-2.91,0,*5F
1491649450.54,25519,11.75,73362.3,-3.39,-2.91,-2.91,0,*53
1491649451.73,25520,11.75,73370.0,-3.39,-2.99,-2.91,0,*51
1491649452.92,25521,11.75,73346.8,-3.39,-2.99,-2.91,0,*50
1491649454.15,25522,11.69,73346.8,-3.37,-3.03,-2.91,0,*5F
1491649455.37,25523,11.69,73372.5,-3.37,-3.03,-3.03,0,*54
1491649456.59,25524,11.75,73372.0,-3.37,-3.11,-3.03,0,*50
1491649457.79,25525,11.69,73350.0,-3.35,-3.19,-3.11,0,*58
1491649458.98,25526,11.75,73358.8,-3.35,-3.23,-3.23,0,*53
1491649460.17,25527,11.69,73350.5,-3.35,-3.23,-3.23,0,*52
1491649461.38,25528,11.69,73348.3,-3.35,-3.39,-3.39,0,*5D
1491649462.6,25529,11.69,73350.8,-3.35,-3.47,-3.39,0,*55
1491649463.88,25530,11.69,73346.3,-3.33,-3.51,-3.51,0,*52
1491649465.13,25531,11.75,73346.0,-3.35,-3.59,-3.51,0,*5D
1491649466.4,25532,11.75,73350.5,-3.33,-3.71,-3.59,0,*5A
1491649467.61,25533,11.75,73342.5,-3.35,-3.75,-3.75,0,*57
1491649468.82,25534,11.75,73332.3,-3.35,-3.75,-3.75,0,*50
1491649470.02,25535,11.75,73334.8,-3.35,-3.87,-3.83,0,*55
1491649471.22,25536,11.69,73336.5,-3.35,-3.87,-3.87,0,*52
1491649472.42,25537,11.69,73342.3,-3.35,-3.87,-3.87,0,*53
1491649473.63,25538,11.69,73334.0,-3.35,-3.95,-3.87,0,*5F
1491649474.83,25539,11.69,73328.8,-3.35,-3.95,-3.87,0,*5E
1491649476.04,25540,11.69,73328.3,-3.35,-3.95,-3.87,0,*50
1491649477.24,25541,11.69,73336.8,-3.35,-3.87,-3.87,0,*52
1491649478.44,25542,11.75,73334.8,-3.35,-3.87,-3.87,0,*51
1491649479.7,25543,11.69,73360.0,-3.37,-4.01,-3.91,0,*5C
1491649480.95,25544,11.69,73358.3,-3.37,-4.01,-3.87,0,*5C
1491649482.18,25545,11.75,73358.8,-3.37,-3.87,-3.75,0,*59
1491649483.38,25546,11.75,73342.5,-3.39,-3.75,-3.75,0,*59
1491649484.63,25547,11.75,73356.0,-3.37,-3.75,-3.67,0,*55
1491649485.9,25548,11.69,73346.8,-3.37,-3.55,-3.51,0,*5D
1491649487.12,25549,11.69,73354.3,-3.39,-3.51,-3.39,0,*58
1491649488.35,25550,11.69,73358.8,-3.37,-3.35,-3.35,0,*50
1491649489.57,25551,11.75,73352.5,-3.37,-3.23,-3.03,0,*53
1491649490.8,25552,11.69,73352.5,-3.33,-2.99,-2.99,0,*56
1491649492.03,25553,11.69,73326.5,-3.33,-2.99,-2.95,0,*5B
1491649493.31,25554,11.69,73330.3,-3.33,-2.63,-2.55,0,*55
1491649494.58,25555,11.75,73350.0,-3.29,-2.59,-2.55,0,*56
1491649495.85,25556,11.75,73350.5,-3.29,-2.59,-2.55,0,*55
1491649497.1,25557,11.69,73336.0,-3.27,-2.55,-2.55,0,*56
1491649498.32,25558,11.75,73352.0,-3.27,-2.79,-2.67,0,*56
1491649499.54,25559,11.69,73352.0,-3.25,-2.99,-2.91,0,*52
1491649500.75,25560,11.69,73346.5,-3.23,-2.95,-2.95,0,*56
1491649501.96,25561,11.69,73346.8,-3.25,-2.91,-2.87,0,*56
1491649503.15,25562,11.69,73344.5,-3.23,-2.83,-2.83,0,*54
1491649504.35,25563,11.69,73330.0,-3.23,-2.95,-2.87,0,*56
1491649505.55,25564,11.69,73334.5,-3.23,-2.87,-2.87,0,*52
1491649506.75,25565,11.69,73334.3,-3.23,-2.95,-2.83,0,*54
1491649507.99,25566,11.69,73336.8,-3.23,-2.71,-2.59,0,*5A
1491649509.27,25567,11.69,73338.3,-3.21,-2.63,-2.63,0,*53
1491649510.55,25568,11.69,73310.0,-3.21,-2.71,-2.71,0,*5C
1491649511.8,25569,11.75,73316.8,-3.19,-2.59,-2.55,0,*5A
1491649512.99,25570,11.69,73314.3,-3.19,-2.43,-2.43,0,*5E
1491649514.21,25571,11.69,73310.3,-3.13,-2.27,-2.23,0,*51
1491649515.43,25572,11.69,73310.3,-3.17,-2.39,-2.39,0,*52
1491649516.7,25573,11.69,73312.5,-3.13,-2.55,-2.63,0,*52
1491649517.92,25574,11.69,73312.8,-3.13,-2.87,-2.79,0,*51
1491649519.12,25575,11.69,73318.3,-3.11,-3.03,-2.99,0,*51
1491649520.32,25576,11.69,73316.0,-3.11,-3.19,-3.03,0,*5B
1491649521.52,25577,11.69,73322.5,-3.11,-3.15,-3.03,0,*56
1491649522.71,25578,11.69,73322.8,-3.11,-3.11,-2.91,0,*57
1491649523.96,25579,11.69,73320.3,-3.11,-2.75,-2.63,0,*58
1491649525.21,25580,11.69,73336.3,-3.11,-2.67,-2.67,0,*59
1491649526.44,25581,11.69,73336.5,-3.11,-2.79,-2.75,0,*54
1491649527.71,25582,11.75,73342.5,-3.09,-2.59,-2.51,0,*5A
1491649528.94,25583,11.69,73332.3,-3.09,-2.35,-2.31,0,*57
1491649530.17,25584,11.69,73330.0,-3.09,-2.31,-2.19,0,*5E
1491649531.39,25585,11.69,73316.3,-3.09,-2.23,-2.19,0,*5C
1491649532.66,25586,11.69,73316.0,-3.05,-2.47,-2.47,0,*5A
1491649533.88,25587,11.69,73312.5,-3.05,-2.91,-2.83,0,*58
1491649535.09,25588,11.69,73322.0,-3.05,-2.91,-2.79,0,*52
1491649536.35,25589,11.69,73318.0,-3.07,-2.63,-2.47,0,*51
1491649537.59,25590,11.69,73332.8,-3.05,-2.19,-2.07,0,*52
1491649538.86,25591,11.69,73332.3,-3.05,-2.07,-1.95,0,*54
1491649540.11,25592,11.69,73326.3,-3.03,-2.11,-2.03,0,*5A
1491649541.33,25593,11.69,73306.3,-3.01,-2.31,-2.27,0,*5D
1491649542.56,25594,11.69,73328.5,-3.01,-2.43,-2.31,0,*58
1491649543.84,25595,11.69,73330.0,-3.01,-2.75,-2.67,0,*5F
1491649545.06,25596,11.69,73326.3,-3.01,-3.07,-3.07,0,*5F
1491649546.27,25597,11.75,73326.5,-2.99,-2.95,-2.87,0,*5D
1491649547.52,25598,11.69,73326.3,-2.99,-2.11,-1.99,0,*52
1491649548.78,25599,11.69,73324.0,-2.97,-1.87,-1.71,0,*57
1491649550.02,25600,11.69,73318.8,-2.97,-2.19,-1.99,0,*56
1491649551.24,25601,11.69,73338.0,-2.97,-2.23,-2.19,0,*55
1491649552.49,25602,11.69,73344.5,-2.97,-2.47,-2.35,0,*5A
1491649553.69,25603,11.69,73344.8,-2.91,-2.19,-2.19,0,*58
1491649554.92,25604,11.69,73370.3,-2.91,-2.19,-2.03,0,*54
1491649556.14,25605,11.69,73364.0,-2.91,-2.15,-2.03,0,*59
1491649557.34,25606,11.75,73352.5,-2.91,-2.19,-2.19,0,*5D
1491649558.59,25607,11.75,73354.0,-2.91,-2.59,-2.55,0,*50
1491649559.82,25608,11.75,73348.3,-2.91,-2.19,-2.07,0,*5C
1491649561.04,25609,11.75,73360.0,-2.89,-2.19,-2.19,0,*5B
1491649562.26,25610,11.75,73342.8,-2.89,-2.15,-2.15,0,*53
1491649563.52,25611,11.69,73338.8,-2.87,-2.03,-1.99,0,*5C
1491649564.76,25612,11.75,73354.3,-2.87,-1.91,-1.87,0,*58
1491649566.02,25613,11.69,73338.5,-2.87,-2.11,-2.03,0,*5D
1491649567.22,25614,11.69,73352.0,-2.87,-1.79,-1.67,0,*56
1491649568.41,25615,11.69,73366.0,-2.83,-1.63,-1.51,0,*5D
1491649569.66,25616,11.69,73374.5,-2.83,-1.95,-1.83,0,*58
1491649570.91,25617,11.69,73354.8,-2.83,-2.11,-2.07,0,*59
1491649572.13,25618,11.69,73358.0,-2.79,-1.87,-1.75,0,*59
1491649573.38,25619,11.75,73360.5,-2.81,-2.19,-2.11,0,*5A
1491649574.65,25620,11.69,73370.3,-2.81,-2.07,-2.07,0,*58
1491649575.87,25621,11.69,73338.3,-2.79,-1.51,-1.43,0,*5D
1491649577.11,25622,11.69,73348.8,-2.77,-1.43,-1.33,0,*54
1491649578.33,25623,11.69,73346.0,-2.77,-1.67,-1.63,0,*56
1491649579.59,25624,11.75,73364.0,-2.75,-1.39,-1.29,0,*56
1491649580.86,25625,11.75,73346.0,-2.75,-1.09,-0.97,0,*60
1491649582.1,25626,11.69,73352.8,-2.73,-1.05,-0.93,0,*6D
1491649583.29,25627,11.69,73358.8,-2.69,-0.61,-0.49,0,*53
1491649584.48,25628,11.69,73358.5,-2.65,-0.45,-0.41,0,*5E
1491649585.68,25629,11.69,73352.5,-2.65,-0.41,-0.19,0,*56
1491649586.88,25630,11.75,73358.0,-2.61,-0.23,-0.03,0,*65
1491649588.1,25631,11.69,73358.3,-2.61,-0.27,-0.15,0,*57
1491649589.33,25632,11.69,73350.0,-2.57,-0.27,-0.27,0,*50
1491649590.54,25633,11.69,73360.8,-2.57,-0.23,-0.11,0,*50
1491649591.76,25634,11.69,73360.8,-2.55,-0.65,-0.53,0,*51
1491649593.0,25635,11.75,73356.3,-2.51,-1.17,-1.01,0,*56
1491649594.22,25636,11.69,73352.3,-2.53,-1.43,-1.29,0,*5C
1491649595.42,25637,11.69,73354.3,-2.53,-1.63,-1.51,0,*50
1491649596.63,25638,11.69,73344.3,-2.51,-1.63,-1.59,0,*55
1491649597.86,25639,11.69,73344.8,-2.51,-1.71,-1.63,0,*5E
1491649599.09,25640,11.69,73344.5,-2.51,-1.71,-1.71,0,*53
1491649600.28,25641,11.75,73350.0,-2.49,-1.79,-1.75,0,*57
1491649601.55,25642,11.69,73346.8,-2.51,-1.91,-1.87,0,*56
1491649602.82,25643,11.75,73342.0,-2.51,-2.03,-1.91,0,*58
1491649604.07,25644,11.69,73348.0,-2.49,-2.03,-2.03,0,*5E
1491649605.31,25645,11.69,73368.3,-2.51,-2.23,-2.11,0,*57
1491649606.53,25646,11.69,73368.3,-2.51,-2.23,-2.15,0,*50
1491649607.73,25647,11.69,73346.5,-2.53,-2.31,-2.31,0,*56
1491649608.92,25648,11.69,73344.0,-2.53,-2.39,-2.39,0,*59
1491649610.11,25649,11.69,73354.0,-2.53,-2.43,-2.39,0,*55
1491649611.3,25650,11.69,73358.5,-2.53,-2.43,-2.43,0,*50
1491649612.5,25651,11.69,73358.8,-2.53,-2.43,-2.43,0,*51
1491649613.69,25652,11.69,73358.0,-2.53,-2.43,-2.43,0,*52
1491649614.88,25653,11.69,73342.5,-2.53,-2.43,-2.43,0,*53
1491649616.12,25654,11.69,73362.8,-2.55,-2.55,-2.43,0,*55
1491649617.39,25655,11.69,73364.0,-2.55,-2.59,-2.51,0,*5B
1491649618.66,25656,11.69,73360.0,-2.55,-2.59,-2.59,0,*50
1491649619.91,25657,11.69,73362.3,-2.53,-2.67,-2.67,0,*57
1491649621.18,25658,11.75,73354.3,-2.55,-2.67,-2.67,0,*5E
1491649622.4,25659,11.69,73360.5,-2.59,-2.79,-2.79,0,*53
1491649623.64,25660,11.69,73356.3,-2.57,-2.71,-2.71,0,*57
1491649624.89,25661,11.69,73352.3,-2.57,-2.55,-2.59,0,*5A
1491649626.08,25662,11.75,73352.5,-2.57,-2.23,-2.19,0,*5C
1491649627.32,25663,11.69,73346.3,-2.57,-1.95,-1.83,0,*53
1491649628.59,25664,11.69,73350.0,-2.59,-1.87,-1.87,0,*5D
1491649629.79,25665,11.69,73346.0,-2.57,-1.79,-1.79,0,*52
1491649631.01,25666,11.69,73360.0,-2.55,-1.79,-1.79,0,*53
1491649632.2,25667,11.69,73364.5,-2.53,-2.27,-2.19,0,*59
1491649633.41,25668,11.69,73356.0,-2.55,-2.43,-2.43,0,*5D
1491649634.68,25669,11.69,73364.8,-2.55,-2.59,-2.59,0,*5C
1491649635.95,25670,11.69,73376.5,-2.55,-2.71,-2.59,0,*5E
1491649637.17,25671,11.69,73356.3,-2.57,-2.87,-2.75,0,*5A
1491649638.37,25672,11.69,73354.5,-2.57,-2.95,-2.95,0,*54
1491649639.57,25673,11.69,73362.5,-2.57,-3.07,-2.99,0,*53
1491649640.77,25674,11.75,73358.8,-2.57,-3.11,-2.99,0,*53
1491649641.96,25675,11.75,73346.3,-2.57,-3.11,-3.07,0,*54
1491649643.18,25676,11.69,73356.3,-2.59,-3.11,-3.15,0,*5A
1491649644.38,25677,11.69,73352.5,-2.61,-3.15,-3.03,0,*53
1491649645.6,25678,11.69,73348.3,-2.59,-3.11,-3.03,0,*53
1491649646.82,25679,11.69,73336.5,-2.59,-3.11,-3.03,0,*52
1491649648.02,25680,11.69,73324.3,-2.61,-3.15,-3.03,0,*5B
1491649649.25,25681,11.69,73366.5,-2.63,-3.15,-3.07,0,*5C
1491649650.45,25682,11.75,73376.8,-2.61,-2.99,-2.99,0,*5E
1491649651.64,25683,11.75,73388.0,-2.61,-3.03,-2.91,0,*55
1491649652.83,25684,11.75,73394.5,-2.61,-2.91,-2.87,0,*5F
1491649654.06,25685,11.69,73372.8,-2.63,-2.95,-2.95,0,*5B
1491649655.26,25686,11.75,73356.5,-2.61,-2.87,-2.87,0,*5A
1491649656.47,25687,11.69,73342.8,-2.63,-2.91,-2.79,0,*5F
1491649657.67,25688,11.69,73344.8,-2.65,-2.79,-2.79,0,*50
1491649658.88,25689,11.75,73312.8,-2.63,-2.91,-2.79,0,*51
1491649660.1,25690,11.75,73340.0,-2.63,-2.91,-2.91,0,*5F
1491649661.32,25691,11.69,73358.8,-2.63,-3.07,-2.95,0,*54
1491649662.55,25692,11.69,73354.5,-2.63,-3.07,-3.07,0,*5D
1491649663.76,25693,11.75,73352.5,-2.63,-3.19,-3.19,0,*5C
1491649664.97,25694,11.69,73352.5,-2.65,-3.31,-3.27,0,*5A
1491649666.19,25695,11.69,73352.0,-2.65,-3.43,-3.39,0,*51
1491649667.43,25696,11.75,73346.0,-2.65,-3.43,-3.43,0,*5F
1491649668.69,25697,11.75,73336.3,-2.67,-3.71,-3.63,0,*5F
1491649669.94,25698,11.75,73346.5,-2.69,-3.71,-3.63,0,*5E
1491649671.2,25699,11.75,73346.5,-2.67,-3.71,-3.63,0,*51
1491649672.45,25700,11.69,73358.5,-2.69,-3.71,-3.63,0,*5E
1491649673.69,25701,11.69,73360.0,-2.73,-3.67,-3.67,0,*57
1491649674.94,25702,11.69,73362.0,-2.69,-3.63,-3.59,0,*56
1491649676.2,25703,11.69,73354.3,-2.69,-3.59,-3.59,0,*5E
1491649677.43,25704,11.69,73348.3,-2.73,-3.55,-3.55,0,*52
1491649678.7,25705,11.69,73354.0,-2.75,-3.55,-3.55,0,*55
1491649679.97,25706,11.69,73352.5,-2.75,-3.55,-3.55,0,*56
1491649681.24,25707,11.69,73352.5,-2.75,-3.63,-3.63,0,*57
1491649682.5,25708,11.69,73344.0,-2.77,-3.67,-3.67,0,*5A
1491649683.76,25709,11.69,73348.5,-2.77,-3.67,-3.67,0,*5B
1491649685.01,25710,11.69,73350.3,-2.77,-3.79,-3.71,0,*5B
1491649686.24,25711,11.69,73344.0,-2.77,-3.79,-3.79,0,*52
1491649687.45,25712,11.69,73346.0,-2.79,-3.79,-3.79,0,*5F
1491649688.66,25713,11.69,73344.3,-2.79,-3.79,-3.79,0,*5E
1491649689.86,25714,11.69,73344.3,-2.79,-3.79,-3.79,0,*59
1491649691.08,25715,11.69,73356.0,-2.81,-3.87,-3.83,0,*5B
1491649692.3,25716,11.75,73382.0,-2.81,-3.95,-3.87,0,*5F
1491649693.55,25717,11.75,73386.8,-2.81,-4.01,-3.95,0,*57
1491649694.77,25718,11.75,73360.8,-2.83,-4.05,-4.01,0,*54
1491649696.0,25719,11.69,73360.5,-2.85,-4.05,-4.13,0,*50
1491649697.22,25720,11.69,73360.3,-2.85,-4.05,-4.05,0,*5D
1491649698.5,25721,11.69,73366.0,-2.85,-4.01,-4.01,0,*5C
1491649699.79,25722,11.75,73376.5,-2.85,-4.01,-4.01,0,*5F
1491649701.07,25723,11.69,73356.5,-2.85,-4.01,-4.01,0,*5E
1491649702.29,25724,11.75,73354.3,-2.89,-3.95,-3.95,0,*55
1491649703.52,25725,11.75,73356.0,-2.89,-3.95,-3.83,0,*53
1491649704.73,25726,11.69,73356.8,-2.87,-3.83,-3.91,0,*5A
1491649705.96,25727,11.75,73370.3,-2.89,-3.91,-3.83,0,*55
1491649707.19,25728,11.75,73370.0,-2.89,-3.79,-3.79,0,*59